星链-4101 (STARLINK-4101 )

导读 | 星芒AI

STARLINK-4101 是 SpaceX Starlink 卫星互联网项目中的一颗低轨通信卫星,属于第二批部署的星链卫星群。该卫星于2021年发射,运行在约550公里高度的近地轨道,旨在为全球用户提供高速、低延迟的互联网服务。它采用先进的相控阵天线和激光通信技术,支持全球范围内的宽带连接,尤其服务于传统网络难以覆盖的偏远地区。STARLINK-4101 是星链计划实现全球互联网覆盖目标的重要组成部分。

基本信息
目录编号:
53142
目录名称:
STARLINK-4101
国际标识:
2022-083L
轨道中心:
EARTH
卫星名称:
星链-4101
卫星全名:
星链-4101 (STARLINK-4101 )
卫星状态:
在轨 (已飞行1207 天)
发射日期:
2022-07-17 UTC
国别 :
美国 (US)
星等 :
--
轨道信息
数据来源 国际轨道数据
星历时间: 2025-11-04T19:02:08+0800
12小时前
查看轨道信息
半长轴: 6917.907km
偏心率: 0.0001326
轨道倾角: 53.218°
近地点辐角 92.968°
升交点赤经 16.269°
平近点角 267.147°
近地点: 538.854km
远地点: 540.69km
周期: 95.438分钟
每日圈数: 15.088316
详细信息
固有亮度:
5
最大亮度:
2.5
卫星平台:
Starlink v1.5
覆盖范围:
全球
运营商:
太空探索技术公司
运营商所在国:
美国
制造商(研发单位):
太空探索技术公司
制造商所在国:
美国
使用方式:
暂无
卫星简介
星链(Starlink)计划是由太空探索技术公司(SpaceX)提出的一个巨型低轨卫星互联网星座项目,计划在2019年至2024年间在太空搭建由约1.2万颗卫星组成的“星链”网络,其中1584颗将部署在地球上空550千米处的近地轨道,并从2020年开始工作。该卫星仍在工作。
2D轨道图
3D轨道图
轨道高度分析图
轨道倾角分析图
轨道综合分析图
查看轨道综合分析图